一网星座-0572星 (ONEWEB-0572)

导读

ONEWEB-0572是英国OneWeb星座下属一颗低轨通信卫星,于2023年1月10日发射入轨。OneWeb星座由英国一网公司主导建设,目标是搭建全球低轨卫星互联网,为网络基础设施薄弱的偏远地区提供低成本宽带接入服务。作为星座组网卫星之一,ONEWEB-0572运行于近地轨道,助力全球覆盖的天基通信网络构建,后续支持航空、地面及5G非地面网络通信服务。

基本信息
目录编号:
55151
目录名称:
ONEWEB-0572
国际标识:
2023-004M
轨道中心:
EARTH
卫星名称:
一网星座-0572星
卫星全名:
一网星座-0572星 (ONEWEB-0572)
卫星状态:
在轨 (已飞行1341 天)
发射日期:
2023-01-10 UTC
国别 :
英国 (GB)
星等 :
--
该卫星已列入 空间交会检测服务 Space Conjunction Data Service (SCDS) ,当前飞行风险评估等级: 无高风险
轨道信息
数据来源 国际轨道数据
星历时间: 2026-09-12T00:57:55+0800
10小时前
查看轨道信息
半长轴: 7571.848km
偏心率: 0.0001708
轨道倾角: 87.921°
近地点辐角 101.114°
升交点赤经 348.682°
平近点角 259.018°
近地点: 1192.417km
远地点: 1195.005km
周期: 109.285分钟
每日圈数: 13.176498
详细信息
平衡模式:
三轴稳定
覆盖范围:
全球
运营商:
一网卫星公司
运营商所在国:
英国
制造商(研发单位):
一网卫星公司
制造商所在国:
英国
使用方式:
暂无
卫星简介
OneWeb卫星网络由648颗重约125公斤的微型卫星组成,运行在1200公里的轨道上。 每颗卫星都能够提供至少每秒8千兆位的吞吐量,以使用其高吞吐量的Ku频段有效载荷为家庭和移动平台提供互联网接入。该卫星仍在工作。
2D轨道图
3D轨道图
轨道高度分析图
轨道倾角分析图
轨道综合分析图
查看轨道综合分析图
交会数据列表
事件ID 空间交会对象 最接近时刻(TCA) 交会距离 交会风险概率(CRP) 交会风险指数(CRI) 操作
CDM_260913-083903-941005-515125
2026-09-13T
08:39:22+0000
1.062 km
极远距离
1.961029E-5 中风险 0.61
与全量物体交会距离演化趋势
与全量物体交会风险概率演化趋势